Regional Weather Roundup
Issued by NWS

Home | Current Version | Previous Version | Text Only | Print | Product List | Glossary Off
Versions: 1 2 3 4 5 6 7 8 9 10 11 12 13 14 15 16 17 18 19 20 21 22 23 24 25 26 27 28 29 30 31 32 33 34 35 36 37 38 39 40 41 42 43 44 45 46 47 48 49 50

861
ASUS45 KBOU 120307
RWRCO

WEATHER ROUNDUP FOR COLORADO
NATIONAL WEATHER SERVICE DENVER/BOULDER CO
800 PM MST THU FEB 11 2016

NOTE: "FAIR" INDICATES FEW OR NO CLOUDS BELOW 12000 FEET WITH NO
SIGNIFICANT WEATHER AND/OR OBSTRUCTIONS TO VISIBILITY.

COZ001>005-013-030-031-120400-
...NORTHWEST COLORADO...

CITY           SKY/WX    TMP DP  RH WIND       PRES   REMARKS
CRAIG          CLOUDY    13   8  81 CALM      30.40R
HAYDEN         CLOUDY    27  16  63 CALM      30.39S
MEEKER         CLOUDY    25  17  72 CALM      30.39R
MOUNT WERNER   NOT AVBL
STEAMBOAT SPGS CLOUDY    26  17  71 CALM      30.38F
WALDEN         CLOUDY    30  14  51 SE8       30.39S WCI  23
$$

COZ006>008-011-120400-
...WEST CENTRAL VALLEYS...

CITY           SKY/WX    TMP DP  RH WIND       PRES   REMARKS
GRAND JUNCTION CLOUDY    28  26  92 CALM      30.40R
MONTROSE       CLOUDY    30  24  78 SE5       30.42R WCI  25
EAGLE          CLEAR     30  19  64 CALM      30.42R
RIFLE          CLOUDY    29  19  66 CALM      30.40S
DELTA          CLOUDY    35  28  76 E3        30.40R
NUCLA          CLOUDY    36  27  69 E8        30.43R
$$

COZ017>023-064>068-120400-
...SOUTHWEST COLORADO...

CITY           SKY/WX    TMP DP  RH WIND       PRES   REMARKS
DURANGO        CLOUDY    33  22  63 N12       30.37S WCI  24
CORTEZ         CLOUDY    30  24  78 E8        30.38R WCI  22
PAGOSA SPRINGS CLOUDY    32  20  61 CALM      30.40R
TELLURIDE      CLOUDY    34  12  40 E6        30.47S WCI  29
WOLF CREEK PAS CLOUDY    32   1  27 NW6       30.56R WCI  26
$$

COZ009-010-012-014-032>034-037-058>063-120400-
...CENTRAL COLORADO...

CITY           SKY/WX    TMP DP  RH WIND       PRES   REMARKS
ASPEN          CLOUDY    30  17  58 S10       30.42R WCI  21
BUENA VISTA    CLOUDY    38  20  49 W12       30.38R
COPPER MTN     CLOUDY    30  10  43 W14G23    30.49S WCI  20
BERTHOUD PASS  FAIR      21  10  63 NW43G52   30.40F WCI   0
COTTONWOOD PAS CLOUDY    41  12  30 W13G21    30.43R
GUNNISON       CLOUDY     7   3  85 CALM      30.49R
KREMMLING      CLOUDY    10   5  79 CALM      30.44S
LEADVILLE      CLOUDY    28  10  46 E7        30.43R WCI  21
MONARCH PASS   CLOUDY    27  10  50 W5        30.61R WCI  21
SALIDA         NOT AVBL
SUNLIGHT       CLOUDY    32  10  40 CALM        N/A
WILKERSON PASS CLOUDY    32  14  47 N12G23    30.48R WCI  23
$$

COZ069>075-120400-
...SAN LUIS VALLEY/SANGRE DE CRISTO MOUNTAINS...

CITY           SKY/WX    TMP DP  RH WIND       PRES   REMARKS
ALAMOSA        CLOUDY    30  20  66 E3        30.38R
LA VETA PASS   CLOUDY    34  10  37 MISG      30.43R
SAGUACHE       CLOUDY    32  19  59 NW9       30.40S WCI  24
$$

COZ035-036-038>040-120400-
...NORTHERN COLORADO FRONT RANGE...

CITY           SKY/WX    TMP DP  RH WIND       PRES   REMARKS
DENVER INTL AP CLOUDY    38  27  64 S14       30.25R
DMNS CITY PARK   N/A     46  24  42 SW8G15    30.26S
AURORA         MOCLDY    39  26  59 S10       30.27R
FRONT RANGE AP MOCLDY    39  27  60 SE12      30.27R
ERIE MUNI ARPT CLOUDY    46  25  44 SW7       30.25R
BOULDER MUN AP CLOUDY    45  28  53 CALM      30.24S
CENTENNIAL     CLOUDY    42  27  55 S12       30.27R
BROOMFIELD     PTCLDY    46  25  42 S5        30.27R
FORT COLLINS   CLOUDY    43  27  52 SW8       30.25R
LONGMONT       CLOUDY    42  29  59 SW5       30.26R
$$

COZ041-046-047-076>085-087-088-120400-
...PIKES PEAK/PALMER DIVIDE AND SOUTHERN FOOTHILLS...

CITY           SKY/WX    TMP DP  RH WIND       PRES   REMARKS
COLO. SPRINGS  CLOUDY    42  25  50 W6        30.29R
A. F. ACADEMY  CLOUDY    38  24  57 N10       30.29R
SCHRIEVER AFB  FAIR      39  25  58 N12G21    30.29R
ELLICOTT       CLOUDY   N/A N/A N/A NE18      30.26R
FALCON         CLOUDY    37  24  59 N12       30.30R
FORT CARSON    CLEAR     41  26  54 NE9       30.27R
LIMON          CLOUDY    29  25  85 NW5       30.26R WCI  24
MONUMENT HILL  CLOUDY    32  23  69 SE7       30.32S WCI  26
TRINIDAD       CLEAR     46  14  27 W10       30.22R
$$

COZ042>045-048>051-090-091-120400-
...NORTHEAST COLORADO...

CITY           SKY/WX    TMP DP  RH WIND       PRES   REMARKS
GREELEY ARPT   CLOUDY    41  28  60 SW7       30.25R
AKRON          CLOUDY    38  28  67 VRB3      30.23R
BURLINGTON     CLOUDY    35  27  72 NW9       30.23R WCI  28
WRAY           NOT AVBL
STERLING       CLOUDY    37  30  75 W5        30.21S
HOLYOKE        CLOUDY    46  30  53 NW14      30.20R
FORT MORGAN    CLOUDY    42  26  52 N14G21    30.24R
$$

COZ086-089-092>099-120400-
...SOUTHEAST COLORADO...

CITY           SKY/WX    TMP DP  RH WIND       PRES   REMARKS
PUEBLO         CLEAR     48  27  44 N10       30.25R
LA JUNTA       CLEAR     43  28  55 E6        30.21R
LAMAR          CLOUDY    46  26  45 NE9       30.19R
SPRINGFIELD      N/A     39  22  50 NE13      30.21R
$$




USA.gov is the U.S. government's official web portal to all federal, state and local government web resources and services.